Weather History for West Palm Beach, FL

Change the Weather History Date:

Wednesday, May 8, 2013

  Actual Average Record
Temperature  
Mean Temperature 72 °F 77 °F  
Max Temperature 83 °F 85 °F 94 °F (1967)
Min Temperature 60 °F 70 °F 51 °F (1992)
Degree Days  
Heating Degree Days 0 0  
Month to date heating degree days 0 0  
Since 1 July heating degree days 164 233  
Cooling Degree Days 7 12  
Month to date cooling degree days 65 92  
Year to date cooling degree days 892 787  
Growing Degree Days 21 (Base 50)    
Moisture  
Dew Point 59 °F    
Average Humidity 67    
Maximum Humidity 97    
Minimum Humidity 37    
Precipitation  
Precipitation 0.00 in 0.09 in 3.08 in (1939)
Month to date precipitation 3.80 0.68  
Year to date precipitation 13.08 14.88  
Snow  
Snow 0.00 in - - ()
Month to date snowfall 0.0  
Since 1 July snowfall 0.0  
Snow Depth 0.00 in    
Sea Level Pressure  
Sea Level Pressure 30.09 in    
Wind  
Wind Speed 5 mph (WSW)    
Max Wind Speed 13 mph    
Max Gust Speed 17 mph    
Visibility 10 miles    
Events      
T = Trace of Precipitation, MM = Missing Value Source: NWS Daily Summary

Daily Weather History Graph

Daily Weather History Graph

Search for Another Location

Airport:

Trip Planner

Search our weather history database for the weather conditions in past years. The results will help you decide how hot, cold, wet, or windy it might be!

Date:

Astronomy

May. 08, 2013 Rise Set
Actual Time 6:37 AM EDT 7:56 PM EDT
Civil Twilight 6:12 AM EDT 8:21 PM EDT
Nautical Twilight 5:42 AM EDT 8:51 PM EDT
Astronomical Twilight 5:12 AM EDT 9:22 PM EDT
Moon 5:37 AM EDT (5/8) 6:57 PM EDT (5/8)
Length of Visible Light 14h 09m
Length of Day
13h 19m
Waning Crescent, 2% of the Moon is Illuminated
May 8
Waning Crescent
May 9
New
May 18
First Quarter
May 25
Full
May 31
Last Quarter

Hourly Weather History & Observations

Time (EDT) Temp. Heat Index Dew Point Humidity Pressure Visibility Wind Dir Wind Speed Gust Speed Precip Events Conditions
12:53 AM 66.9 °F - 57.9 °F 73% 30.06 in 10.0 mi West 4.6 mph - N/A   Clear
1:53 AM 66.0 °F - 57.9 °F 75% 30.04 in 10.0 mi West 3.5 mph - N/A   Clear
2:53 AM 64.9 °F - 59.0 °F 81% 30.04 in 10.0 mi West 3.5 mph - N/A   Clear
3:53 AM 63.0 °F - 59.0 °F 87% 30.05 in 10.0 mi WSW 4.6 mph - N/A   Clear
4:53 AM 61.0 °F - 57.9 °F 90% 30.06 in 10.0 mi West 4.6 mph - N/A   Clear
5:53 AM 62.1 °F - 60.1 °F 93% 30.07 in 10.0 mi WSW 3.5 mph - N/A   Clear
6:53 AM 61.0 °F - 59.0 °F 93% 30.09 in 10.0 mi WSW 4.6 mph - N/A   Scattered Clouds
7:53 AM 64.0 °F - 61.0 °F 90% 30.11 in 10.0 mi WSW 3.5 mph - N/A   Scattered Clouds
8:53 AM 70.0 °F - 61.0 °F 73% 30.12 in 10.0 mi WNW 3.5 mph - N/A   Scattered Clouds
9:53 AM 73.0 °F - 59.0 °F 61% 30.14 in 10.0 mi West 4.6 mph - N/A   Scattered Clouds
10:53 AM 75.0 °F - 55.9 °F 51% 30.13 in 10.0 mi Variable 6.9 mph - N/A   Scattered Clouds
11:53 AM 77.0 °F - 57.0 °F 50% 30.13 in 10.0 mi Variable 4.6 mph - N/A   Scattered Clouds
12:53 PM 79.0 °F - 54.0 °F 42% 30.12 in 10.0 mi West 8.1 mph - N/A   Scattered Clouds
1:53 PM 81.0 °F 80.7 °F 55.0 °F 41% 30.10 in 10.0 mi West 8.1 mph - N/A   Scattered Clouds
2:53 PM 82.0 °F 81.4 °F 55.0 °F 39% 30.09 in 10.0 mi WSW 10.4 mph - N/A   Scattered Clouds
3:53 PM 82.0 °F 81.4 °F 55.0 °F 39% 30.07 in 10.0 mi SW 9.2 mph - N/A   Partly Cloudy
4:53 PM 82.9 °F 82.0 °F 55.0 °F 38% 30.06 in 10.0 mi WSW 8.1 mph 16.1 mph N/A   Partly Cloudy
5:53 PM 82.9 °F 81.8 °F 53.1 °F 36% 30.06 in 10.0 mi West 3.5 mph - N/A   Partly Cloudy
6:53 PM 80.1 °F 80.9 °F 60.1 °F 50% 30.06 in 10.0 mi ESE 8.1 mph - N/A   Partly Cloudy
7:53 PM 77.0 °F - 62.1 °F 60% 30.06 in 10.0 mi SE 8.1 mph - N/A   Partly Cloudy
8:53 PM 75.9 °F - 63.0 °F 64% 30.08 in 10.0 mi SE 5.8 mph - N/A   Scattered Clouds
9:53 PM 75.9 °F - 63.0 °F 64% 30.11 in 10.0 mi SE 4.6 mph - N/A   Partly Cloudy
10:53 PM 75.9 °F - 63.0 °F 64% 30.12 in 10.0 mi SE 3.5 mph - N/A   Partly Cloudy
11:53 PM 73.0 °F - 62.1 °F 68% 30.12 in 10.0 mi Calm Calm - N/A   Clear